Regional Weather Roundup
Issued by NWS

Home | Current Version | Previous Version | Graphics & Text | Print | Product List | Glossary On
Versions: 1 2 3 4 5 6 7 8 9 10 11 12 13 14 15 16 17 18 19 20 21 22 23 24 25 26 27 28 29 30 31 32 33 34 35 36 37 38 39 40 41 42 43 44 45 46 47 48 49 50
000
ASUS43 KDTX 010510
RWRMI
MICHIGAN HOURLY REGIONAL WEATHER ROUNDUP
NATIONAL WEATHER SERVICE DETROIT/PONTIAC MI
1200 AM EST SUN FEB 01 2015

NOTE: "FAIR" INDICATES FEW OR NO CLOUDS BELOW 12,000 FEET WITH NO
SIGNIFICANT WEATHER AND/OR OBSTRUCTION TO VISIBILITY.

MIZ047>049-052>055-059>063-066>070-074>076-081>083-010600-
SOUTHEAST LOWER MICHIGAN

CITY           SKY/WX    TMP DP  RH WIND       PRES   REMARKS
ADRIAN         LGT SNOW  30  26  85 CALM      30.17S FOG
ALMA           CLOUDY    27  22  80 N7        30.20S
ANN ARBOR      CLOUDY    31  24  75 CALM      30.16S
BAD AXE        CLOUDY    25  19  78 N9        30.21R
DETROIT CITY   CLOUDY    34  24  67 CALM      30.17S
DETROIT        CLOUDY    31  25  78 CALM      30.17F
FLINT          CLOUDY    29  21  72 NE14      30.18R
GROSSE ILE     CLOUDY    32  27  80 CALM      30.16S
HILLSDALE      LGT SNOW  30  28  93 CALM      30.14S
HOWELL         CLOUDY    30  26  83 N3        30.15S

CITY           SKY/WX    TMP DP  RH WIND       PRES   REMARKS
JACKSON        CLOUDY    31  23  72 CALM      30.15S
LAMBERTVILLE   CLOUDY    32  27  80 CALM      30.17F
LANSING        CLOUDY    30  23  75 NE7       30.17S
LAPEER         NOT AVBL
MASON          CLOUDY    30  25  82 N3        30.15S
MONROE         CLOUDY    30  27  86 CALM      30.16S
MT. CLEMENS    CLOUDY    30  24  78 N5        30.16R
PONTIAC        CLOUDY    30  25  81 N5        30.15S
PORT HOPE        N/A     24  17  74 N9        30.20R
PORT HURON     CLOUDY    30  25  80 N6        30.19R
TRI CITIES     CLOUDY    28  20  71 N8        30.21S
YPSILANTI      CLOUDY    34  25  69 CALM      30.17S
$$
MIZ043>046-050>051-056>058-064>065-071>073-077>080-010600-
SOUTHWEST LOWER MICHIGAN

CITY           SKY/WX    TMP DP  RH WIND       PRES   REMARKS
BATTLE CREEK   LGT SNOW  31  25  78 CALM      30.16R
BENTON HARBOR  LGT SNOW  29  29 100 NE3       30.17S VSB 1
BIG RAPIDS     CLOUDY    24  19  81 NE7       30.19S
COLDWATER      LGT SNOW  30  29  94 CALM      30.15S
HOLLAND        CLOUDY    31  23  72 NE5       30.18R
GRAND RAPIDS   FLURRIES  30  22  72 NE8       30.16F
KALAMAZOO      LGT SNOW  30  27  88 CALM      30.16S VSB 1
MARSHALL       LGT SNOW  28  24  85 CALM      30.14S
MUSKEGON       CLOUDY    29  21  72 NE7       30.20R
$$
MIZ016>042-010600-
NORTHERN LOWER MICHIGAN

CITY           SKY/WX    TMP DP  RH WIND       PRES   REMARKS
ALPENA         LGT SNOW  16  10  77 NW8       30.26R
BEAVER ISLAND  CLOUDY    14   8  75 CALM      30.30S
BELLAIRE       CLOUDY    17   8  66 N5        30.29S
CADILLAC       CLOUDY    16   9  73 NE12      30.19F
CHARLEVOIX     MOCLDY    16   8  70 N9        30.31F
FRANKFORT      CLOUDY    20  12  71 NE8       30.26S
GAYLORD        MOCLDY    12   5  73 VRB5      30.21S
GRAYLING       MOCLDY    13   6  72 N6        30.24R
HARBOR SPRINGS CLOUDY    14   6  71 N3        30.28S
HOUGHTON LAKE  CLOUDY    17  10  74 N8        30.21S
MANISTEE       CLOUDY    21  10  63 NE8       30.24S
OSCODA         CLOUDY    19  12  73 N12       30.25R
PELLSTON       CLOUDY    13   4  67 N10       30.30R WCI   0
TRAVERSE CITY  CLOUDY    19  10  68 NE12      30.26S
$$
MIZ007>008-015-010600-
EASTERN UPPER MICHIGAN

CITY           SKY/WX    TMP DP  RH WIND       PRES   REMARKS
KINROSS        MOCLDY     3   0  85 N9        30.30R
MACKINAC ISLAN MOCLDY    10   2  69 NE8       30.30R
NEWBERRY       CLOUDY    10   6  84 N13       30.29R WCI  -5
S. S. MARIE    PTCLDY     3  -5  69 NE6       30.32R
$$
MIZ004>006-011>014-085-010600-
CENTRAL UPPER MICHIGAN

CITY           SKY/WX    TMP DP  RH WIND       PRES   REMARKS
MANISTIQUE     CLOUDY    12   8  82 N5        30.31R
ESCANABA       MOCLDY    10   3  72 NW5       30.31F
MENOMINEE      CLOUDY    12   1  62 NE10      30.30S WCI  -1
SAWYER-GWINN   CLOUDY    11   5  76 N12G17    30.27R WCI  -3
$$
MIZ001>003-009>011-084-010600-
WESTERN UPPER MICHIGAN

CITY           SKY/WX    TMP DP  RH WIND       PRES   REMARKS
IRON MOUNTAIN  MOCLDY     7  -1  70 NW7       30.28F
HOUGHTON       LGT SNOW   4  -2  76 N7        30.34S
COPPER HARBOR    N/A     11   4  73 E10G21    30.38R WCI  -3
IRONWOOD       CLOUDY    10   7  85 E9        30.28R
$$

ABBREVIATIONS USED IN REMARKS
   TC - TEMPERATURE IN CELSIUS
  WCI - WIND CHILL INDEX
   HX - HEAT INDEX
  VSB - VISIBILITY




USA.gov is the U.S. government's official web portal to all federal, state and local government web resources and services.